User: anonymous   Login
Location: Kitchener
(43.4500°N, 80.5000°W)
Time: 18:49:21
(UTC-04:00)
Language:

ATLAS 5 CENTAUR R/B - Orbit

View from above orbital plane
View from above orbital plane
View from above satellite
View from above satellite

Ground track
Ground track

The orbit data is extracted from the following two-line orbital elements,

1 31702U 07027B   17202.92491124 0.00000250  00000-0  80964-4 0    04
2 31702  63.3612 121.6535 0282000   4.3420 355.6580 14.18572704    05
Epoch (UTC): 21 July 2017 22:11:52
Eccentricity: 0.0282000
inclination: 63.3612°
perigee height: 627 km
apogee height: 1033 km
right ascension of ascending node: 121.6535°
argument of perigee: 4.3420°
revolutions per day: 14.18572704
mean anomaly at epoch: 355.6580°
orbit number at epoch: 0

The dashed part of the orbit path shows where the satellite is in the earth's shadow,  

DLR